Regional Weather Roundup
Issued by NWS Green Bay, WI

Home | Current Version | Previous Version | Graphics & Text | Print | Product List | Glossary Off
Versions: 1 2 3 4 5 6 7 8 9 10 11 12 13 14 15 16 17 18 19 20 21 22 23 24 25 26 27 28 29 30 31 32 33 34 35 36 37 38 39 40 41 42 43 44 45 46 47 48 49 50

514
ASUS43 KGRB 101300
RWRGRB

NORTH-CENTRAL AND NORTHEAST WISCONSIN REGIONAL WEATHER ROUNDUP
NATIONAL WEATHER SERVICE GREEN BAY WI
700 AM CST SAT DEC 10 2016

WIZ005-009-010>012-018-019-101400-
NORTH CENTRAL WISCONSIN

CITY           SKY/WX    TMP DP  RH WIND       PRES   REMARKS
IRONWOOD       LGT SNOW   5   1  83 W12       30.40S FOG     WCI -11
MANITOWISH WTR NOT AVBL
ARBOR VITAE    NOT AVBL
EAGLE RIVER    NOT AVBL
LAND O LAKES   NOT AVBL
RHINELANDER    CLOUDY     7  -2  66 NW7       30.37R WCI  -5
PHILLIPS       CLOUDY     5  -3  69 NW3       30.39S
ANTIGO         NOT AVBL
TOMAHAWK       NOT AVBL
MERRILL        NOT AVBL
$$

WIZ013-073-101400-
NORTHEAST WISCONSIN

CITY           SKY/WX    TMP DP  RH WIND       PRES   REMARKS
IRON MOUNTAIN  CLEAR      7  -3  64 W10       30.35S WCI  -8
MARINETTE      PTCLDY    13   3  64 NW6       30.43R WCI   4
$$

WIZ017-030-035>037-045-101400-
CENTRAL WISCONSIN

CITY           SKY/WX    TMP DP  RH WIND       PRES   REMARKS
MEDFORD        NOT AVBL
WAUSAU         CLOUDY    11   4  73 NW10      30.39S WCI  -3
MOSINEE        CLOUDY    10   1  67 W9        30.40F WCI  -2
MARSHFIELD     CLOUDY    11   2  67 NW10      30.40R WCI  -3
WISC RAPIDS    FLURRIES  10   7  87 W8        30.45R WCI  -2
STEVENS POINT  NOT AVBL
WAUPACA        NOT AVBL
SHAWANO        NOT AVBL
CLINTONVILLE   NOT AVBL
WAUTOMA        CLEAR      9   6  88 W6          N/A  WCI  -1
$$

WIZ038-039-048-051-101400-
FOX VALLEY

CITY           SKY/WX    TMP DP  RH WIND       PRES   REMARKS
NWS GREEN BAY  FLURRIES  19  10  68 NW13      30.43R WCI   6
APPLETON       PTCLDY    10   7  85 W6        30.41S WCI   1
OSHKOSH        CLEAR     12   7  80 W5        30.44S WCI   4
FOND DU LAC    CLEAR     13   6  74 W6        30.45S WCI   4
$$

WIZ022-050-052-101400-
EAST CENTRAL WISCONSIN

CITY           SKY/WX    TMP DP  RH WIND       PRES   REMARKS
EPHRAIM        NOT AVBL
WASHINGTON ISL NOT AVBL
STURGEON BAY   CLOUDY    17   7  64 NW14      30.41S WCI   3
MANITOWOC      NOT AVBL
SHEBOYGAN      CLEAR     13   7  77 W8        30.44S WCI   2
$$

LMZ563-521-522-541>543-101400-
LAKESHORE

STATION/POSITION TIME  TEMP    WIND        PRES    VSBY  WAVE
                       AIR SEA DIR/SP/G                  HT/PER
                 (UTC) (F)     (DEG/KT/KT) (MB)    (MI)  (FT/S)
SHEBOYGAN LKSHOR 1200   17     250/  7/  9 1032.3R
KEWAUNEE LKSHORE 1230   18     320/  9/ 11 1029.5S
ALGOMA MARINA    1206          260/  8/ 12   N/A
NORTHPORT PIER   1240   17     280/ 14/ 21 1029.1S
SISTER BAY LKSHO 1220   18     310/ 22/ 27   N/A
CHAMBERS ISLAND  1240   15     280/ 10/ 15 1029.1S
MENOMINEE LKSHOR 1230   15     300/ 11/ 16 1029.1R
$$




USA.gov is the U.S. government's official web portal to all federal, state and local government web resources and services.